SPHEREX DEB, 63332

Orbit data source: Space-Track

SPHEREX DEB, 63332 is space debris in SSO originally from a launch on Wed, 12 Mar 2025 UTC launched from the Air Force Western Test Range (AFWTR). Debris objects in space refer to the collection of defunct objects orbiting the Earth. Examples of debris include non-operational satellites, rocket bodies, and fragments generated from explosions, collisions, or faulty payload assembly.

Loading next visibility...
Identifier
63332, 2025-047F
Orbit
SSO
Last TLE update
1 day ago
Origin
Manufacturer
BAEB
Mission
Spacecraft
Bus & Motor
SPHEREX, Unknown motor
Mass
~5 kg wet, ~5 kg dry
Launch date (UTC)
2025-03-12 (2 months ago)
Launch vehicle
Unknown
Launch site
Air Force Western Test Range (AFWTR)
Object type
Payload
Rocket body
Debris
Shape & HBR
Cyl, 0.7 m
Radar Cross Section
0.247 m², Small (<0.1 m²)

Expand to show TLE details & history

TLE from 1 day ago
0 SPHEREX DEB
1 63332U 25047F   25128.48386541  .00006940  00000-0  10533-2 0  9995
2 63332  97.9561 316.2752 0008728  45.3106 314.8813 14.74359643  7355
Epoch: 2025-05-08T11:36Z
Definitive object data (Epoch: 2025-05-08T11:36:45.971Z)
Latitude
0.00005°
Longitude
-84.47006°
Altitude
645.872 km
Speed
7.537 km/s
True Right ascension
21h 05m 06s
True Declination
0° 00' 00"
Sunlit
Object was in daylight at TLE epoch
Visualization TLE readout
Latitude
14.60665°
Longitude
98.70256°
Altitude
652.807 km
Speed
7.531 km/s
Apparent Right ascension
09h 50m 11s
Apparent Declination
-11° 18' 35"
Sunlit
Object is in daylight
Visualization observer readout
Local Sidereal Time
22:35:20
Azimuth
22.358° NNE
Elevation
-59.699°
Doppler factor
1
Orbital elements
Apogee altitude
650.365 km
Perigee altitude
638.107 km
Semi-major axis
7,022.373 km
Eccentricity
0.0008728
Inclination
97.9561°
RAAN
316.2752°
Arg. of periapsis
45.3106°
True anomaly
314.81038°
Mean anomaly
314.8813°
Eccentric anomaly
314.84584°
Mean motion
3.68822 °/min
BSTAR
0.0010533
Orbital period
97.61 mins
Loading maneuver chart data...
Loading SW <> Apogee altitude chart data...
Loading historical data...
Loading historical data...
Loading historical data...
Loading historical data...
Loading historical data...
Loading historical data...
Loading historical data...
Other satellites on launch #47 in the year 2025 (2025-03-12 UTC)

SPHEREX DEB Visibility forecast

Observer location: undefined°, undefined°

Span
Click to sort rows by Start time (UTC) header in descending order
Start Az.
Max El. time (UTC)
Max El. Az.
Max El.
End time (UTC)
End Az.
7 mins2025-05-10 01:39:11.597Z0.135° NNE2025-05-10 01:42:11.597Z280.739° WNW40.874°2025-05-10 01:46:11.597Z207.377° SW
8 mins2025-05-10 12:35:11.597Z171.804° S2025-05-10 12:39:11.597Z223.951° SW43.759°2025-05-10 12:43:11.597Z343.252° N
|